www.pogodaiklimat.ru

Погода и климат >> Архив погоды >> Россия >> Коми >> Ираель


ПОГОДА в Ираеле

  • Прогноз погоды в Ираеле
  • Монитор погоды в Ираеле

АРХИВ ПОГОДЫ в Ираеле

Время (UTC), дата Ветер
(напр.,м/с)
 
Видим.   Явления Облачность Т
(С)
Тd
(С)
f
(%)
Тe
(С)
Тes
(С)
Комфортность P
(гПа)
Po
(гПа)
Тmin
(С)
Tmax
(С)
R
(мм)
R24
(мм)
S
(см)
12 13.05 С 3 20 км 10/8 1000 м
[Sc Ac und]
+14.7 +3.3 46 +14 +14 1022.8 1004.0
15 13.05 СВ 4 20 км 10/10 1000 м
[Cb calv]
+9.8 +2.3 60 +7 +7 1024.6 1005.4 +16.2
18 13.05 С 2 20 км 10/8 600 м
[Sc Ac und]
+6.1 +1.3 71 +4 +4 1026.0 1006.5
21 13.05 СВ 3 10 км 10/6 600 м
[Sc Ac trans Ci fib]
+2.7 -2.4 69 -1 -1 1027.5 1007.7
00 14.05 В 1 20 км 9/3 600 м
[Sc Ac trans Ci fib]
+0.3 -2.9 79 -2 -1 1028.0 1008.0
03 14.05 ЮВ 4 20 км 10/0
[Ac As Cs]
+4.2 -1.1 68 0 +1 1028.3 1008.6 +0.1
06 14.05 В 3 20 км 10/6 1000 м
[Sc Ac As]
+5.7 -1.2 61 +3 +4 1028.7 1009.1
09 14.05 В 3 20 км 9/0
[Ac As Cc]
+9.6 -0.4 50 +8 +13 1028.1 1008.8
12 14.05 ЮВ 2 20 км 9/0
[Ac As Cc]
+11.5 -0.9 42 +11 +14 1027.9 1008.7
15 14.05 ЮВ 4 20 км 9/0
[Ac As Ci sp]
+9.5 -5.7 34 +7 +8 1027.1 1007.8 +11.7
18 14.05 ЮВ 2 20 км 3/0
[Ac trans]
+4.2 -6.3 46 +2 +2 1028.2 1008.5
21 14.05 ЮВ 2 10 км ясно +1.3 -5.7 60 -2 -2 1028.2 1008.3
00 15.05 ЮВ 3 20 км ясно +1.6 -5.3 60 -2 -2 1027.3 1007.4
03 15.05 ЮВ 5 20 км 6/0
[Ac cast Ci sp]
+5.3 -4.8 48 +1 +3 1025.6 1006.1 +0.7
06 15.05 ЮВ 4 20 км 6/0
[Ac lent Ci fib]
+11.3 -2.4 38 +10 +14 1023.9 1004.7
09 15.05 ЮВ 4 20 км 9/1 1000 м
[Sc Ac cast]
+14.1 -1.9 33 +13 +16 1021.5 1002.6
12 15.05 Ю 3
{10}
20 км 10/8 600 м
[Cb cap Ac und]
+13.7 -2.2 33 +13 +13 1020.4 1001.5
15 15.05 Ю 3 20 км {ливн. осадки} 10/10 600 м
[Cb cap]
+11.9 +1.1 48 +11 +11 1019.5 1000.5 +14.5 0.0
18 15.05 ЮЗ 2 20 км в посл. час ливневой дождь 10/10 1000 м
[Cb cap]
+10.7 +2.9 59 +10 +10 1018.9 999.8
21 15.05 СЗ 2 10 км слаб. ливневой дождь 10/10 600 м
[Cb cap]
+5.8 +4.3 90 +3 +3 1019.3 999.9
00 16.05 С 3 10 км слаб. ливневой дождь 10/10 300 м
[Cb cap]
+3.1 +1.7 91 -1 -1 1019.7 1000.1
03 16.05 С 2 2000 м слаб. ливневой снег 10/10 300 м
[Cb cap]
+0.3 -0.6 94 -3 -3 1020.1 1000.2 +0.3 4 <0.5
06 16.05 С 3 10 км слаб. ливневой дождь 10/8 600 м
[Cb cap Ac und]
+2.4 +0.5 87 -2 -1 1019.7 1000.0
09 16.05 СЗ 2 20 км {ливн. осадки} 9/8 600 м
[Cb cap Ac cast Ci ing]
+5.9 +0.6 69 +4 +5 1018.7 999.4
12 16.05 СЗ 4 20 км {ливн. осадки} 10/10 600 м
[Cb cap]
+6.6 -2.4 53 +3 +3 1018.1 998.8
15 16.05 СЗ 2 20 км 9/9 300 м
[Sc]
+5.9 -4.0 49 +4 +4 1017.6 998.3 +7.0 1
18 16.05 СЗ 2 20 км 10/10 600 м
[Sc]
+3.7 -2.2 65 +1 +1 1016.8 997.3
21 16.05 СЗ 2 10 км 10/10 600 м
[Sc]
+2.5 -2.8 68 -0 -0 1015.4 995.8
00 17.05 СЗ 1 20 км 10/5 600 м
[Sc Ac und]
+1.3 -1.7 80 -0 -0 1014.0 994.4
03 17.05 СЗ 2 20 км 10/4 1000 м
[Sc Ac und]
+2.5 -1.7 74 -0 0 1012.5 993.0 +1.3
06 17.05 З 3 20 км 9/8 600 м
[Cb calv Ci fib]
+5.9 -4.5 47 +3 +5 1010.0 990.8
09 17.05 З 2 10 км слаб. ливневой дождь 10/8 600 м
[Cb cap Ac As]
+5.3 +0.5 71 +3 +4 1008.5 989.3
12 17.05 З 3 20 км в посл. час ливневой дождь 9/6 600 м
[Cb cap Ac As Ci fib]
+4.6 +0.1 73 +1 +3 1008.0 988.7
15 17.05 СЗ 5-10
{10}
20 км 9/6 600 м
[Cb cap Ac As Cc]
+5.7 -3.6 51 +2 +2 1007.1 987.9 +7.3 0.5
18 17.05 СЗ 4
{10}
20 км 9/8 600 м
[Cb cap Ac trans]
+1.7 -1.0 82 -3 -3 1007.2 987.7
21 17.05 СЗ 3 10 км в посл. час ливневой дождь 10/8 600 м
[Cb cap Ac und]
+0.5 -1.0 90 -4 -4 1006.1 986.5
00 18.05 СЗ 3 10 км слаб. ливневой снег 10/10 300 м
[Cb cap]
+0.2 -1.7 87 -4 -4 1004.8 985.3
03 18.05 СЗ 3 20 км в посл. час ливневой снег 10/10 300 м
[Cb cap]
+0.2 -1.7 87 -4 -4 1004.0 984.4 +0.1 0.7
06 18.05 СЗ 3 4000 м слаб. крупа 9/8 600 м
[Cb cap Ci ing]
+2.2 -1.9 74 -2 -0 1002.5 983.1
09 18.05 СЗ 5-10
{12}
2000 м слаб. крупа 10/8 600 м
[Cb cap Ac As]
+2.2 -1.2 78 -3 -3 1002.1 982.7
12 18.05 СЗ 3
{12}
2000 м слаб. ливневой снег 10/10 300 м
[Cb cap]
+1.1 -0.2 91 -3 -3 1001.9 982.5
15 18.05 СЗ 3 4000 м слаб. дождь со снегом 10/9 300 м
[Frnb As op]
+0.6 -0.4 93 -4 -4 1002.0 982.6 +4.1 4
18 18.05 С 3 4000 м слаб. морось 10/10 100 м
[St]
+1.0 +0.1 94 -4 -4 1002.4 983.0
21 18.05 С 3 4000 м дымка 10/10 200 м
[St]
+1.2 +0.4 94 -3 -3 1003.2 983.8
00 19.05 С 3 10 км слаб. ливневой дождь {морось} 10/10 300 м
[Cb cap]
+1.3 +0.4 94 -3 -3 1004.0 984.6
03 19.05 С 3 10 км слаб. дождь 10/9 200 м
[Frnb As op]
+1.3 +0.4 94 -3 -3 1005.0 985.6 +0.6 0.9
06 19.05 С 3 20 км {ливн. осадки, дождь} 10/8 300 м
[Frnb Ac und]
+3.6 +2.1 90 -0 0 1006.7 987.4
09 19.05 СВ 5
{11}
20 км 10/6 600 м
[Cb cap Ci fib]
+9.8 -1.0 47 +7 +9 1007.4 988.5
12 19.05 С 4-10
{12}
20 км 9/5 600 м
[Cb cap Ac cast Ci fib]
+9.9 -6.4 31 +8 +9 1008.9 990.0
15 19.05 С 5-10
{12}
20 км 8/4 600 м
[Cb calv Ac cast Ci fib]
+9.0 -6.6 33 +6 +7 1010.4 991.3 +10.9 0.3
18 19.05 С 3
{12}
20 км 3/0
[As op]
+5.2 -5.7 45 +3 +3 1011.3 992.0
21 19.05 С 2 10 км 1/0
[Ac lent]
+1.6 -5.3 60 -1 -1 1012.3 992.7
00 20.05 С 3 20 км 4/0
[Ac As]
+0.5 -4.5 69 -4 -4 1012.7 993.0
03 20.05 С 4 20 км 3/0
[Ac trans]
+1.8 -6.5 54 -3 -1 1013.2 993.6 +0.3
06 20.05 С 5-10
{10}
20 км 4/3 1000 м
[Cu hum Ci fib]
+4.3 -6.2 46 0 +4 1013.9 994.5
09 20.05 С 4
{10}
20 км 8/1 1000 м
[Cu hum Cc]
+6.2 -7.1 38 +3 +9 1014.6 995.3

 

Местоположение метеостанции Ираель (Коми, Россия): широта 64.52 долгота 55.40 высота над уровнем моря 157 м.

В архиве по умолчанию представлена погода в Ираеле за последнюю неделю. Архивные данные за месяц целиком и за предыдущие месяцы, начиная с января 2011 года, Вы можете получить, выбрав интересующий диапазон дат из раскрывающегося списка и нажав кнопку "Ввод!".


*Определитесь, кто Вы:
робот инопланетянин человек

Внимание! Время в таблицах - всемирное. Для получения местного времени необходимо прибавить поправку, которая равна 3 ч.

Смотрите также архив погоды в соседних городах и на ближайших метеорологических станциях:

Погода в Ижме (Коми, Россия) (88 км)
Погода в Кедва-Воме (Коми, Россия) (94 км)
Погода в Печоре (Коми, Россия) (105 км)
Погода в Усть-Щугоре (Коми, Россия) (110 км)
Погода в Вуктыле (Коми, Россия) (121 км)
Погода в Ухте (Коми, Россия) (133 км)
Погода в Мутном Материке (Коми, Россия) (159 км)
Погода в Усть-Усе (Коми, Россия) (176 км)
Погода в Усть-Цильме (Коми, Россия) (179 км)
Погода в Усинске (Коми, Россия) (191 км)

Пояснения к столбцам:

Ветер - указаны скорость ветра в м/с - средняя за 10 мин, порывы в срок и между сроками (в фигурных скобках) и направление, откуда дует ветер: С - северный, СВ - северо-восточный, В - восточный, ЮВ - юго-восточный, Ю - южный, ЮЗ - юго-западный, З - западный, СЗ - северо-западный.
Видимость - горизонтальная дальность видимости в метрах или километрах. При видимости от 1 до 10 км при отсутствии осадков обычно наблюдается дымка, при ухудшении видимости до 1 км и менее - туман. В сухую погоду видимость может ухудшаться дымом, пылью или мглою.
Явления - указаны атмосферные явления, наблюдавшиеся в срок или в последний час перед сроком; фигурными скобками обозначены явления, наблюдавшиеся между сроками (за 1-3 часа до срока); квадратными скобками обозначены град или гололедные отложения с указанием их диаметра в мм.
Облачность - указаны через наклонную черту общая и нижняя облачность в баллах и высота нижней границы облаков в метрах; квадратными скобками обозначены формы облаков: Ci - перистые, Cs - перисто-слоистые, Cc - перисто-кучевые, Ac - высококучевые, As - высокослоистые, Sc - слоисто-кучевые, Ns - слоисто-дождевые, Cu - кучевые, Cb - кучево-дождевые. Подробнее классификацию облаков см. в Атласе облаков (PDF).
T - Температура воздуха - температура, измеренная на высоте 2 м над землей.
Td - Температура точки росы - температура, при понижении до которой содержащийся в воздухе водяной пар достигнет насыщения.
f - Относительная влажность воздуха - влажноcть воздуха, измеренная на высоте 2 м над землей.
Te - Эффективная температура - температура, которую ощущает одетый по сезону человек в тени. Характеристика душности погоды. При расчете учитывается влияние влажности воздуха и скорости ветра на теплоощущения человека.
Tes - Эффективная температура на солнце - температура, которую ощущает человек, с поправкой на солнечный нагрев. Характеристика знойности погоды. Зависит от высоты солнца над горизонтом, облачности и скорости ветра. Ночью, в пасмурную погоду, а также при ветре 12 м/с и более поправка равна нулю.
P - Атмосферное давление - приведенное к уровню моря атмосферное давление.
Po - Атмосферное давление - измеренное на уровне метеостанции атмосферное давление.
Tmin - Минимальная температура - минимум температуры воздуха на высоте 2 м над землей.
Tmax - Максимальная температура - максимум температуры воздуха на высоте 2 м над землей.
R - Количество осадков - Количество выпавших осадков за период времени, мм. При наведении курсора мыши на число - период времени, за который выпало указанное количество осадков.
R24 - Количество осадков - Количество выпавших осадков за 24 часа, мм.
S - Снежный покров - Высота снежного покрова, см. При наведении курсора мыши на число - состояние снежного покрова и степень покрытия местности в баллах.